Theta_e
307 307 307 306 306 304 304 300 294 312 313 298 301 297 299 299 302 304 302 301 299 296 292 292 296 296 302 305 304 299 303 300 295 296 303 303 301 300 300 296 293 296 296 294
306 306 306 306 306 305 300 294 298 311 309 295 296 300 299 300 297 299 301 299 301 301 295 289 295 301 303 305 304 302 304 299 291 294 299 302 299 300 301 301 301 295 291 292
307 306 306 306 306 306 304 297 292 301 308 306 297 295 296 296 300 299 303 300 301 299 294 296 291 298 301 304 306 310 307 299 295 292 294 300 297 299 301 299 294 293 294 293
307 307 306 306 306 306 304 300 295 300 294 296 297 298 296 294 295 301 302 300 298 297 292 292 288 297 298 303 303 307 306 298 300 298 297 298 298 298 299 297 297 293 295 296
307 306 306 307 306 305 303 295 294 299 296 298 296 296 295 294 295 294 296 296 298 300 295 292 289 295 298 299 303 301 303 298 299 295 297 297 295 297 298 297 297 297 297 296
306 306 306 307 306 305 302 304 303 296 294 293 294 293 294 294 297 294 298 298 294 295 295 300 301 298 301 303 303 302 301 299 296 291 294 293 289 294 296 297 298 298 294 299
305 306 307 307 306 306 303 302 299 292 288 291 292 295 296 295 296 294 297 298 295 298 300 300 302 303 302 303 303 305 301 299 298 291 292 283 294 301 298 296 297 299 299 301
304 305 306 306 306 306 303 304 297 293 288 290 293 295 296 297 294 294 293 298 299 302 298 294 292 293 295 297 300 301 303 299 293 289 288 290 293 298 298 297 296 301 301 301
304 305 306 306 306 306 304 303 304 296 291 290 295 294 297 294 291 293 295 300 304 301 294 292 288 288 290 290 292 299 300 300 295 291 285 282 295 300 303 302 290 301 302 301
304 305 305 306 306 306 304 301 305 298 290 295 296 293 294 298 295 289 293 296 298 301 295 292 289 290 295 288 288 290 292 294 289 290 289 291 298 300 303 290 291 302 302 301
304 305 306 306 306 306 304 301 306 299 292 294 297 300 297 298 297 292 296 295 297 297 294 295 293 292 295 292 293 291 290 287 287 290 287 285 302 301 294 300 304 303 301 300
304 304 306 307 306 305 306 299 305 306 295 295 303 303 305 305 303 300 299 297 297 298 297 297 298 293 297 293 287 298 290 294 293 293 293 302 304 303 306 305 302 300 299 298
304 305 306 306 306 306 305 302 303 302 296 297 298 298 305 309 308 308 297 302 302 301 302 300 298 291 297 292 292 293 298 301 298 297 298 299 300 302 302 302 300 298 298 297
305 306 306 306 306 306 306 302 304 300 297 287 293 304 301 308 307 307 305 305 305 305 303 298 298 295 297 295 295 294 298 300 298 295 294 296 297 300 298 296 298 297 297 296
305 306 307 306 306 306 307 309 308 306 296 289 291 299 305 307 307 304 304 304 303 302 299 298 293 297 297 298 299 294 301 298 296 293 301 299 297 297 296 296 296 296 295 295
305 306 307 307 306 307 306 295 304 306 304 294 287 299 300 304 305 304 303 303 302 300 297 295 297 297 297 295 293 296 299 303 304 302 305 303 298 297 299 297 297 296 296 296
305 305 306 306 306 308 299 296 302 305 305 295 291 290 298 303 302 302 301 303 300 299 297 295 296 296 297 296 292 296 301 303 304 305 302 298 298 296 298 298 297 296 295 295
305 306 306 306 303 303 300 304 306 305 300 298 291 289 293 299 296 296 301 298 299 296 295 297 293 296 298 292 296 296 298 299 299 300 303 302 299 298 297 298 296 294 294 294
305 306 306 307 304 297 300 306 306 305 301 293 293 290 288 297 295 297 299 301 292 299 295 295 296 291 288 293 296 294 296 297 298 301 301 298 297 295 295 295 294 294 294 293
305 306 301 294 302 305 305 303 299 299 301 300 293 295 290 296 295 294 295 298 293 289 291 297 290 290 296 298 300 299 299 298 301 298 296 296 295 294 294 294 295 295 294 293
303 298 297 304 305 303 300 293 293 295 292 296 295 294 293 301 293 292 294 292 294 288 290 289 289 289 296 300 300 300 301 300 300 301 300 299 296 294 294 295 295 295 295 292
301 299 302 303 299 297 290 291 293 292 288 295 293 294 294 298 300 293 294 290 293 283 293 287 286 293 296 297 295 296 298 298 299 298 296 295 296 296 297 296 296 295 296 293
305 299 295 295 294 288 285 284 288 288 293 296 296 293 296 298 299 291 291 285 287 295 289 289 290 294 295 296 297 297 299 297 295 295 296 296 296 297 297 296 295 296 294 292
295 291 286 288 287 289 289 289 290 295 294 294 296 294 293 293 291 290 285 289 291 286 285 285 290 292 296 299 300 300 297 297 296 296 296 296 296 296 297 296 295 295 293 292
291 292 285 288 292 292 292 293 292 293 296 295 294 293 291 289 288 289 289 285 284 287 287 288 290 294 296 296 298 297 297 296 296 297 296 296 296 296 295 295 295 295 294 292
294 292 289 293 291 290 292 292 294 297 294 296 294 290 287 287 289 285 284 284 285 286 288 291 295 296 296 297 298 298 297 297 297 296 296 296 296 295 294 293 293 294 293 291
290 290 292 290 290 290 292 295 298 300 294 292 292 287 285 290 287 286 290 287 287 290 293 295 297 298 298 298 298 297 296 296 296 297 297 296 297 295 293 292 292 293 292 291
Wind_Speed
19 18 20 18 19 17 7 6 7 8 4 5 5 10 18 12 18 16 19 16 13 10 8 5 13 19 11 14 19 21 15 10 12 13 5 3 4 7 14 9 12 8 10 4
20 19 19 19 18 11 6 6 8 2 4 6 7 12 13 7 7 17 12 10 11 11 10 4 21 10 2 7 19 18 11 5 9 9 11 9 9 5 2 5 7 11 12 3
20 20 18 18 18 14 7 6 6 5 5 3 7 12 13 10 3 12 13 5 3 9 4 6 6 9 5 3 4 3 15 6 7 6 6 13 14 13 11 9 7 10 11 13
22 20 19 19 18 16 7 5 6 5 6 6 13 12 13 14 11 9 4 6 9 6 5 5 4 2 4 6 3 10 8 12 15 8 3 3 6 10 10 10 6 7 3 6
23 22 19 17 17 18 6 5 6 7 14 11 10 9 8 11 12 6 2 8 3 9 6 8 3 2 4 8 8 9 1 8 13 10 6 4 5 6 7 6 5 6 4 5
22 23 20 16 16 11 5 6 5 6 9 10 12 4 8 11 10 4 6 6 5 4 6 3 9 4 7 1 13 10 7 10 12 9 5 4 8 11 12 9 6 7 9 3
21 22 22 19 16 9 4 5 5 4 5 8 13 13 12 8 13 4 3 4 5 5 5 1 6 13 11 12 11 5 10 9 4 6 8 7 8 1 1 7 3 4 3 7
22 22 23 19 17 14 3 4 3 4 4 6 17 9 7 5 11 6 5 6 4 3 4 5 8 4 5 10 9 8 6 6 4 4 7 5 5 6 8 10 10 3 9 8
22 22 21 21 19 15 3 4 4 4 5 3 12 13 10 5 3 3 5 4 7 5 0 2 3 4 7 6 5 5 8 6 3 6 5 5 11 6 2 4 7 5 3 5
22 23 23 22 20 16 3 4 4 4 4 3 8 3 4 6 4 2 5 4 2 5 3 2 1 5 3 6 7 9 6 5 5 5 2 5 6 2 1 5 5 7 7 8
22 25 24 22 19 15 4 5 6 2 3 8 5 10 7 8 2 1 4 3 3 3 1 1 2 2 4 5 6 10 6 6 3 4 3 4 5 6 2 8 9 9 9 9
22 25 27 22 15 12 8 3 3 2 3 5 9 11 11 11 8 6 1 3 3 5 2 2 1 2 1 9 5 7 5 1 5 1 5 10 11 13 9 9 10 9 8 9
22 25 17 13 13 12 6 3 2 3 2 3 3 3 6 6 6 4 5 2 4 4 5 2 3 4 3 2 5 4 4 4 5 7 11 13 13 13 12 12 11 9 9 9
22 22 16 14 13 12 10 2 2 2 2 2 2 7 3 7 0 3 3 3 4 2 3 3 1 2 4 3 4 4 1 5 7 15 13 13 10 12 11 11 10 10 9 8
22 22 18 14 14 14 8 5 2 1 1 2 4 6 9 6 7 8 4 3 1 1 1 1 3 2 2 3 1 4 5 6 5 3 16 7 13 11 10 10 10 9 9 8
23 22 20 16 15 14 3 1 1 3 1 1 2 2 5 9 8 9 9 5 4 3 3 3 3 3 4 1 2 4 4 5 3 8 9 16 17 13 11 12 11 9 10 10
23 22 19 12 10 4 2 3 4 7 1 1 0 2 3 8 3 3 5 6 4 4 2 3 2 3 3 1 2 3 6 7 12 17 18 18 17 13 13 12 11 10 9 8
22 20 14 6 5 2 1 3 5 4 1 1 1 2 1 6 4 2 4 2 2 4 2 1 1 3 2 2 9 6 9 12 14 6 7 14 16 14 12 9 8 8 9 9
22 14 8 3 2 2 2 8 7 2 2 2 1 2 3 4 2 3 1 1 2 2 1 2 1 2 2 5 7 10 12 8 9 13 16 17 14 13 11 9 8 8 8 9
15 6 2 2 2 9 9 4 2 1 1 2 2 3 2 1 2 1 1 2 2 2 2 1 1 2 5 4 3 15 7 10 12 15 14 13 13 11 9 9 9 8 8 7
4 5 3 5 7 3 1 2 2 1 1 3 3 4 2 3 2 3 3 2 1 2 3 1 0 1 5 8 9 10 14 13 11 5 11 10 11 10 10 9 8 7 8 7
6 4 5 4 3 1 2 1 2 0 3 2 1 3 2 1 3 1 1 2 2 3 2 1 2 4 10 13 12 12 11 8 11 13 14 13 12 10 9 8 7 8 8 8
2 3 3 2 1 2 4 3 2 2 4 2 0 1 2 2 2 1 1 2 1 2 3 1 3 3 10 13 13 14 12 10 11 14 14 13 13 11 9 9 8 8 9 9
3 4 2 3 2 5 4 5 4 3 2 3 0 3 3 2 1 1 2 2 2 3 2 3 3 7 6 14 13 12 12 13 13 13 12 11 11 10 10 9 7 7 8 8
3 3 3 3 1 3 3 3 3 2 3 2 1 2 1 1 2 2 2 2 4 2 3 2 6 10 9 11 11 12 12 11 11 10 9 10 10 11 10 8 8 7 8 8
2 2 3 3 3 2 2 2 2 3 1 1 2 1 3 2 2 2 3 3 2 3 3 7 8 10 9 11 11 11 11 10 9 9 10 9 9 10 10 8 8 8 9 9
3 1 2 3 4 3 3 2 1 3 4 1 1 3 2 1 2 3 1 3 2 7 8 7 10 11 12 11 11 11 10 10 9 9 9 9 10 10 8 8 8 8 8 8
Wind_Direction
331 331 327 334 332 341 329 308 287 130 158 244 222 255 280 2 304 300 284 261 258 207 134 307 271 223 182 205 186 196 205 226 182 217 79 301 327 275 227 219 220 250 274 114
332 332 331 333 335 346 321 291 276 173 223 263 289 300 295 248 264 265 269 266 235 173 177 139 246 188 70 197 193 172 167 179 177 177 193 200 225 210 286 314 310 217 225 151
328 332 333 331 334 333 327 279 295 201 214 300 325 329 312 315 281 281 299 302 200 162 150 165 275 202 100 100 207 149 147 167 220 232 306 182 196 199 200 212 220 249 252 140
334 329 330 330 335 330 308 253 249 322 305 322 319 312 290 302 327 278 327 221 195 188 128 146 220 186 97 133 197 121 164 193 192 153 211 175 176 178 185 211 226 231 148 212
334 332 326 328 330 326 263 286 320 337 298 295 289 294 308 319 352 335 240 331 271 194 166 152 114 340 200 169 170 128 161 138 157 157 211 232 215 201 202 212 192 242 201 223
330 331 328 328 336 343 308 319 296 309 297 316 293 318 321 314 357 288 32 2 32 91 60 126 129 160 276 226 154 135 136 147 176 158 176 192 233 226 216 220 210 245 238 30
331 330 329 328 332 340 288 297 310 285 286 300 307 313 310 343 344 296 15 19 350 57 13 45 173 149 109 99 72 117 145 150 141 119 170 216 53 163 251 200 174 184 108 95
332 328 333 332 322 325 289 292 275 294 296 308 291 310 321 26 354 46 27 18 40 79 283 150 134 108 116 77 52 76 143 118 126 169 199 82 143 116 147 157 130 94 121 116
332 328 329 328 333 327 303 277 272 270 293 259 336 321 321 11 344 28 9 30 192 196 251 318 177 131 114 145 111 88 107 96 114 156 185 196 107 114 6 261 120 116 105 74
332 328 323 322 327 326 333 277 257 251 265 277 328 288 333 358 81 357 272 289 214 214 253 82 317 110 71 132 132 157 139 140 173 142 152 106 110 95 292 220 99 98 75 49
331 327 328 325 319 322 344 276 263 266 272 288 290 304 329 316 342 20 320 250 8 274 208 176 86 45 87 78 128 142 155 147 164 185 174 158 150 171 306 100 98 85 65 40
328 328 326 320 327 326 334 276 344 236 215 269 303 294 292 299 326 324 202 354 6 21 35 9 78 93 148 152 120 156 156 116 157 108 86 95 77 84 90 100 95 68 58 40
329 329 336 348 338 332 343 286 294 295 274 275 292 332 353 345 313 278 316 113 8 76 329 45 42 87 288 122 84 119 119 155 119 145 117 104 93 88 86 89 89 80 66 49
329 331 329 335 339 339 331 255 217 240 292 300 332 7 344 338 272 165 343 49 74 31 320 34 66 97 330 56 102 99 9 161 130 93 107 106 111 97 102 100 94 85 72 58
328 331 337 333 328 324 314 292 279 234 290 317 341 301 356 53 103 76 99 100 350 336 144 45 64 66 263 69 225 126 160 160 171 182 163 136 133 113 128 112 91 81 62 62
327 329 328 323 323 321 327 350 358 18 247 348 7 334 13 61 71 70 55 42 37 46 18 55 92 58 301 105 143 80 149 86 35 106 127 114 127 144 119 104 95 82 68 52
326 325 322 321 327 328 12 355 329 334 289 297 286 72 330 344 357 49 50 47 46 21 47 39 44 93 311 286 111 107 77 99 105 109 119 124 136 129 117 106 102 89 75 61
323 321 320 338 0 354 7 348 340 315 299 314 7 78 151 7 347 71 346 66 57 29 64 266 73 148 212 219 115 78 107 114 127 145 145 126 120 126 123 118 103 84 65 51
321 315 302 210 60 0 332 306 316 291 316 358 37 353 75 162 8 347 2 296 80 40 54 85 280 121 218 78 154 129 150 141 146 113 119 132 131 126 121 108 89 80 65 47
314 290 8 25 345 311 284 198 239 214 12 355 30 107 94 291 162 54 292 4 65 164 78 124 354 239 128 99 124 140 143 157 137 133 139 138 135 132 117 95 81 74 72 37
354 355 353 342 312 261 272 332 326 25 114 23 45 8 55 43 345 53 70 320 216 237 83 299 209 168 122 130 95 101 127 143 155 168 131 131 131 131 125 107 87 73 71 53
316 292 277 270 270 268 286 28 149 338 59 141 8 72 7 23 357 43 201 317 272 39 83 249 195 67 94 99 108 98 85 76 108 116 115 112 113 119 114 107 84 72 75 61
252 237 270 331 310 315 358 36 68 64 13 57 186 126 337 173 90 68 297 284 342 141 213 158 49 35 132 133 120 127 131 125 119 117 115 109 110 110 106 100 81 84 81 64
337 333 350 344 26 30 6 344 346 36 320 296 72 97 356 20 236 57 247 176 242 245 268 90 84 107 130 136 142 138 135 135 130 127 123 119 110 105 100 88 83 85 88 76
327 296 357 22 59 276 279 277 258 212 269 196 183 144 278 257 219 224 286 239 228 276 54 75 111 124 131 120 139 127 125 126 126 129 127 114 111 108 102 91 85 84 85 66
282 254 297 16 291 338 343 313 271 125 93 40 271 203 230 220 252 220 221 269 317 72 83 124 139 123 141 127 121 125 123 119 118 117 121 119 119 114 107 100 87 78 74 60
324 318 358 298 278 272 282 306 309 124 187 199 212 261 350 5 236 224 326 4 46 117 113 130 163 148 124 120 118 119 116 112 111 117 116 107 113 123 125 103 87 81 77 69